Regional Weather Roundup
Issued by NWS Sterling, VA

Home | Current Version | Previous Version | Text Only | Print | Product List | Glossary Off
Versions: 1 2 3 4 5 6 7 8 9 10 11 12 13 14 15 16 17 18 19 20 21 22 23 24 25 26 27 28 29 30 31 32 33 34 35 36 37 38 39 40 41 42 43 44 45 46 47 48 49 50

203
ASUS41 KLWX 190310
RWRLWX

REGIONAL WEATHER ROUNDUP
NATIONAL WEATHER SERVICE BALTIMORE MD/WASHINGTON DC
1000 PM EST SAT FEB 18 2017

Note: "FAIR" indicates few or no clouds below 12,000 feet
with no significant weather and/or obstructions to visibility.
 TC=TEMPERATURE CELSIUS

 * =Non NWS site. Station does not report precipitation (e.g. rain,
    snow, etc.), thunder, or fog.

DCZ001-MDZ009-015-VAZ040>042-051-053>054-190400-
WASHINGTON METRO

CITY           SKY/WX    TMP DP  RH WIND       PRES   REMARKS
WASHINGTON NAT CLOUDY    58  35  42 SW3       29.78R
DULLES         CLOUDY    59  31  34 SW6       29.78R
ANDREWS AFB    PTCLDY    60  31  34 SW7       29.77R
FT BELVOIR     CLOUDY    54  36  51 CALM      29.78R
QUANTICO       CLOUDY    52  39  61 S6        29.79S
COLLEGE PARK*  PTCLDY    50  34  53 CALM      29.77S
LEESBURG*      CLOUDY    55  36  47 W7        29.79S
MANASSAS*      CLOUDY    52  38  58 S6        29.79R
GAITHERSBURG*  MOCLDY    54  28  37 CALM      29.82R

$$

MDZ006>007-011-014-190400-
BALTIMORE METRO

CITY           SKY/WX    TMP DP  RH WIND       PRES   REMARKS
BWI AIRPORT    MOCLDY    58  33  39 SW6       29.76R
MD SCIENCE CTR   N/A     59  32  36 MISG      29.76R
MARTIN STATE   CLEAR     45  39  81 CALM      29.77R
ANNAPOLIS      CLOUDY    47  40  76 CALM      29.77R
FORT MEADE*    CLOUDY    45  36  70 CALM      29.79R

$$

MDZ012-015-019>023-190400-
MARYLAND EASTERN SHORE

CITY           SKY/WX    TMP DP  RH WIND       PRES   REMARKS
OCEAN CITY     CLOUDY    53  39  59 SW10      29.79S
SALISBURY      MOCLDY    54  37  52 SW8       29.78S
BAY BRIDGE AP* CLOUDY    55  36  47 S6        29.77R
CAMBRIDGE*     PTCLDY    50  39  66 CALM      29.78S
EASTON*        CLOUDY    54  37  53 SW3       29.81

$$

MDZ017>025-190400-
SOUTHERN MARYLAND

CITY           SKY/WX    TMP DP  RH WIND       PRES   REMARKS
PATUXENT RIVER CLOUDY    63  35  35 SW10      29.78S
ST INIGOES     MOCLDY    61  34  36 SW8       29.78F
LEONARDTOWN*   CLOUDY    63  32  31 SW7       29.80S

$$

MDZ003>005-190400-
NORTH CENTRAL MARYLAND

CITY           SKY/WX    TMP DP  RH WIND       PRES   REMARKS
FREDERICK*     MOCLDY    55  34  44 S5        29.79R
HAGERSTOWN APT CLOUDY    64  30  27 SW8       29.76R
WESTMINSTER*   CLOUDY    59  34  38 SW8       29.76R

$$

MDZ501>502-190400-
WESTERN MARYLAND

CITY           SKY/WX    TMP DP  RH WIND       PRES   REMARKS
OAKLAND*       CLOUDY    46  37  71 SW13G22   29.83S
CUMBERLAND*    CLOUDY    61  32  33 CALM      29.83S

$$

VAZ025>031-190400-
SHENANDOAH VALLEY

CITY           SKY/WX    TMP DP  RH WIND       PRES   REMARKS
WINCHESTER*    CLOUDY    55  32  41 S3        29.79S
FRONT ROYAL*   CLOUDY    63  32  31 SW6       29.79S
LURAY*         CLOUDY    61  34  36 W5        29.82R
NEW MARKET*    CLOUDY    50  34  53 W3        29.83R
STAUNTON*      CLOUDY    56  31  38 CALM      29.84F
WAYNESBORO*    CLOUDY    60  27  28 W7        29.83F

$$

WVZ021-048>050-054>055-190400-
EASTERN WEST VIRGINIA PANHANDLE

CITY           SKY/WX    TMP DP  RH WIND       PRES   REMARKS
MARTINSBURG    CLOUDY    62  32  32 SW13      29.78R
PETERSBURG*    CLOUDY    62  36  37 SW6       29.84R

$$

VAZ036>039-050-190400-
CENTRAL FOOTHILLS

CITY           SKY/WX    TMP DP  RH WIND       PRES   REMARKS
CHARLOTTESVILL CLOUDY    63  29  27 CALM      29.80F
CULPEPER*      CLOUDY    60  35  38 SW5       29.80R
ORANGE*        CLOUDY    61  32  33 CALM      29.81S
GORDONSVILLE*  CLOUDY    63  32  31 SW5       29.79F
WARRENTON*     PTCLDY    56  30  37 CALM      29.79R

$$

VAZ055>057-190400-
NORTH AND CENTRAL PIEDMONT

CITY           SKY/WX    TMP DP  RH WIND       PRES   REMARKS
FREDERICKSBRG* CLOUDY    62  35  37 W6        29.78F
STAFFORD*      CLOUDY    61  31  33 S3        29.83S

$$

NCZ024-NYZ072-PAZ021-071-VAZ022-071-190400-
OTHER REGIONAL OBSERVATIONS

CITY           SKY/WX    TMP DP  RH WIND       PRES   REMARKS
NEW YORK CITY  PTCLDY    60  31  33 W12G23    29.69S
PHILADELPHIA   CLOUDY    51  36  56 SW7       29.73S
PITTSBURGH     MOCLDY    55  36  48 SW7       29.80R
ROANOKE        CLOUDY    59  34  39 NW6       29.86S
RICHMOND       CLOUDY    63  33  32 SW7       29.81F
RALEIGH        CLOUDY    60  44  55 W13G22    29.91R

$$

ANZ530>537-190400-
MARINE OBSERVATIONS

STATION/POSITION TIME  TEMP    WIND        PRES
                       AIR SEA DIR/SP/G
                 (UTC) (F)     (DEG/KT/KT) (MB)
THOMAS PT LIGHT  0300   50 40  230/  5/  6   N/A
BALT KEY BRIDGE  0248   60     220/ 10/ 11 1007.4R
COVE POINT       0248   64     230/  8/ 12 1009.0R
LEWISETTA        0248   63 43  250/  9/ 11 1008.6R
SOLOMONS ISLAND  0248   58 42  230/ 11/ 13   N/A
PINEY POINT      0248          240/  6/  9   N/A

$$





USA.gov is the U.S. government's official web portal to all federal, state and local government web resources and services.